Location: Bois-Jean
(50.4073°N, 1.7672°E)
Time: 07:13:22
(UTC+00:00)

Daily predictions for brighter satellites

Satellite Brightness Start Highest point End
(mag) Time Altitude Azimuth Time Altitude Azimuth Time Altitude Azimuth
Cosmos 1680 Rocket 4.1 18:17:50 10° NNW 18:23:01 63° WSW 18:28:10 10° S
Cosmos 1937 Rocket 3.8 18:18:18 10° S 18:23:15 44° ESE 18:28:12 10° NE
Abrixas rocket 2.4 18:26:01 10° WSW 18:28:44 43° SSE 18:31:28 10° E
Tsikada Rocket 4.4 18:23:22 10° NNW 18:29:31 69° W 18:35:37 10° S
PSLV R/B 4.5 18:26:09 10° N 18:30:18 67° WNW 18:34:28 10° SSW
Okean 2 Rocket 4.2 18:27:03 10° SE 18:30:37 24° E 18:34:11 10° NE
NOSS 2-2 (E) 4.0 18:28:55 10° S 18:31:57 27° ESE 18:35:18 10° ENE
SL-08 RB Rocket 4.5 18:29:22 10° SE 18:33:29 34° ENE 18:37:35 10° N
USA 116 3.6 18:31:10 10° NNE 18:34:30 50° E 18:38:10 10° S
Okean 2 3.6 18:30:46 10° NNW 18:34:59 82° W 18:39:08 10° S
Cosmos 1544 3.4 18:32:03 10° SSW 18:35:42 74° W 18:39:22 10° N
Okean-O 3.5 18:32:36 10° S 18:36:58 55° W 18:41:20 10° NNW
NOSS 2-2 (D) 4.1 18:37:39 10° S 18:40:38 26° ESE 18:43:54 10° ENE
CENTAUR R/B 3.5 18:36:27 10° NW 18:43:54 51° NNE 18:51:58 11° ESE
USA 102 4.5 18:41:24 10° SE 18:44:32 15° ESE 18:45:14 14° ESE
Iridium 4 Rocket 3.7 18:40:16 10° S 18:45:16 83° W 18:50:47 10° N
GP-B 4.1 18:41:06 10° N 18:45:27 53° W 18:49:46 10° SSW
Cosmos 2082 Rocket 4.3 18:43:29 10° N 18:45:49 12° NNE 18:48:08 10° NE
YAOGAN 1 3.2 18:42:01 10° S 18:46:18 60° WSW 18:50:36 10° NNW
Cosmos 1975 2.9 18:42:42 10° S 18:46:48 85° WNW 18:50:54 10° N
Cosmos 1437 3.2 18:46:39 10° NNW 18:49:37 57° W 18:52:33 10° S
Cosmos 1674 4.2 18:47:00 10° NNE 18:49:56 20° ENE 18:52:10 13° ESE
DMSP B5D1-3 4.5 18:44:50 10° NNE 18:49:57 72° ESE 18:55:02 10° S
H-2A R/B 2.0 18:45:28 10° SSE 18:50:26 83° ENE 18:55:34 10° NNW
ATLAS 3B R/B 3.9 18:44:46 10° NW 18:50:40 31° NNE 18:56:43 10° ENE
SJ-11-01 4.3 18:46:18 10° SSE 18:51:02 90° WSW 18:55:46 10° NNW
CZ-4 R/B 2.8 18:47:41 10° S 18:51:43 44° W 18:55:46 10° NNW
Cosmos 1048 Rocket 4.5 18:48:00 10° NNW 18:53:05 44° ENE 18:58:02 11° SE
ISS -2.4 18:51:39 10° SSW 18:54:23 23° SE 18:56:09 15° ESE
Cosmos 1536 Rocket 4.2 18:50:26 10° N 18:54:34 36° ENE 18:58:41 10° SE
Cosmos 1842 4.2 18:51:33 10° NNW 18:55:19 51° W 18:59:04 10° S
USA 238 DEB 4.0 18:48:31 10° NW 18:55:38 65° NE 19:02:30 12° ESE
USA 238 4.0 18:48:37 10° NW 18:55:44 65° NE 19:02:35 12° ESE
In-Cosmos 22 4.2 18:51:56 10° N 18:57:09 55° ENE 19:02:22 10° SSE
ARGOS 3.1 18:58:37 10° SSE 19:03:59 84° ENE 19:09:24 10° NNW
Cosmos 1025 Rocket 3.1 19:00:19 10° N 19:04:39 57° ENE 19:08:58 10° SSE
CZ-2C R/B 3.2 18:59:59 10° NNE 19:05:06 37° E 19:10:15 10° SSE
Cosmos 1782 Rocket 4.0 19:02:37 10° SSW 19:07:01 68° WNW 19:11:29 10° N
Cosmos 1707 2.6 19:04:05 10° N 19:07:57 85° ENE 19:11:47 10° S
Cosmos 2151 Rocket 4.0 19:07:43 10° SSE 19:11:54 41° E 19:16:08 10° NNE
USA 186 1.6 19:13:02 11° SSE 19:15:57 72° ENE 19:19:12 10° N
CREW DRAGON DEMO-1 DEB 2.9 19:13:28 10° W 19:16:30 69° N 19:18:00 26° E
Ariane Rocket 2.9 19:13:53 10° SSE 19:18:55 73° ENE 19:24:01 10° NNW
SJ-6B 2.7 19:16:15 15° SSE 19:19:14 58° ENE 19:22:57 10° N
CZ-2C R/B 4.2 19:15:04 10° S 19:20:08 47° W 19:25:31 10° NNW
Cosmos 1844 4.4 19:16:05 10° SSE 19:20:56 30° ESE 19:25:46 10° NE
FREGAT/IRIS 2.3 19:20:39 34° SE 19:21:28 52° ENE 19:24:01 10° N
Nadezhda 4 Rocket 3.9 19:16:01 10° N 19:22:09 67° ENE 19:28:13 10° SSE
Cosmos 2263 Rocket 2.7 19:17:13 10° SW 19:22:43 61° WNW 19:28:19 10° NNE
Cosmos 494 Rocket 4.3 19:17:43 10° NNW 19:22:51 49° ENE 19:26:06 21° SE
Cosmos 1072 Rocket 4.5 19:17:03 10° S 19:23:18 82° E 19:29:41 10° N
NOSS 3-2 (A) 4.0 19:15:58 10° NW 19:23:21 88° NE 19:30:19 16° SE
NOSS 2-2 (C) 3.0 19:21:31 10° SSW 19:25:01 68° SE 19:29:01 10° NE
MOS 1 4.3 19:21:57 10° SSE 19:27:39 76° ENE 19:33:22 10° NNW
Lacrosse 4 Rocket 3.7 19:26:55 10° N 19:28:34 12° NNE 19:30:13 10° NE
Cosmos 1844 Rocket 3.0 19:24:21 10° S 19:29:32 41° ESE 19:34:45 10° NE
Cosmos 2034 Rocket 4.0 19:23:29 10° S 19:29:45 64° E 19:36:01 10° NNE
USA 102 4.1 19:24:25 10° SSE 19:24:06 - SSE 19:29:58 28° SSW
Cosmos 2298 Rocket 4.1 19:26:45 10° S 19:31:57 57° ESE 19:37:12 10° NNE
ATLAS CENTAUR R/B 4.0 19:33:08 10° NW 19:34:54 13° NNW 19:36:37 10° N
SPOT 3 Rocket 3.8 19:32:57 23° SE 19:35:55 50° ENE 19:40:54 10° N
USA 234 3.7 19:37:15 10° ENE 19:43:13 36° SE 19:49:10 10° SSW
Resurs 01 Rocket 2.1 19:42:54 33° ESE 19:44:10 42° ENE 19:48:23 10° N
SWAS 4.4 19:39:56 10° NNW 19:44:15 71° ENE 19:45:52 36° SE
Lacrosse 5 rocket 2.8 19:42:14 10° WNW 19:46:16 36° N 19:49:28 16° NE
MetOp-A 4.1 19:42:59 12° SSE 19:47:57 85° WSW 19:53:21 10° NNW
Cosmos 1833 Rocket 3.7 19:44:30 10° NNW 19:49:31 31° NE 19:51:25 25° E
Cosmos 372 Rocket 4.2 19:45:56 10° SSW 19:51:11 75° WNW 19:56:26 10° NNE
MOS 1 Rocket 4.3 19:47:57 10° N 19:52:16 45° WNW 19:56:24 10° SW
OBJECT-B 0.6 19:52:33 62° SSE 19:53:01 83° ENE 19:56:17 10° N
Meteor 1-15 Rocket 4.1 19:48:34 10° S 19:54:08 69° E 19:59:51 10° NNE
Cosmos 1626 2.7 19:52:50 10° N 19:56:03 40° ENE 19:56:03 40° ENE
NOSS 3-2 (C) 4.0 19:50:46 10° NW 19:58:10 89° SW 20:03:03 28° SE
SJ 16-02 4.5 19:56:14 10° W 19:58:42 15° NW 20:01:11 10° NNW
DMSP B5D2-2 4.0 19:53:35 10° NNE 19:58:55 83° ESE 20:04:13 10° SSW
ARIANE 5 R/B 3.2 20:01:02 37° ENE 20:01:11 37° ENE 20:05:11 10° N
Cosmos 2150 Rocket 4.0 19:56:15 10° SSW 20:01:39 88° ESE 20:07:09 10° NNE
Cosmos 1634 Rocket 4.1 19:59:03 26° SSE 20:02:23 52° E 20:08:22 10° NNE
Abrixas rocket 3.1 20:01:02 10° W 20:03:00 36° WSW 20:03:00 36° WSW
BREEZE-M TANK 3.3 19:56:52 10° WSW 20:04:06 41° S 20:04:38 39° SSE
Okean 2 Rocket 4.3 20:04:10 10° SW 20:08:28 43° WNW 20:12:45 10° N
Landsat 7 4.3 20:09:07 39° ENE 20:09:23 40° ENE 20:13:50 10° N
Cosmos 2285 Rocket 3.9 20:03:16 10° S 20:09:28 64° ESE 20:15:46 10° NNE
Cosmos 1125 Rocket 3.4 20:04:12 10° SSW 20:09:29 72° ESE 20:14:48 10° NNE
Okean 1 Rocket 2.9 20:08:19 38° S 20:09:59 75° E 20:14:30 10° NNE
Cosmos 1627 Rocket 4.5 20:09:54 10° N 20:16:20 83° E 20:19:38 31° SSE
ERS-1 Rocket 4.1 20:17:27 28° ENE 20:17:27 28° ENE 20:21:36 10° N
Resurs 1-3 3.9 20:18:56 36° SSW 20:20:33 62° WSW 20:24:56 10° NNW
Cosmos 1092 Rocket 4.1 20:15:31 10° NNW 20:21:40 75° W 20:25:37 24° S
Meteor 2-5 Rocket 3.7 20:17:15 10° NNW 20:22:53 80° W 20:25:27 35° S
Cosmos 1805 3.3 20:24:13 64° SW 20:24:40 73° W 20:28:36 10° N
Cosmos 1674 3.9 20:22:01 10° NNW 20:25:37 39° W 20:27:00 28° SW
ATLAS 2AS CENTAUR R/B 3.2 20:20:14 10° S 20:27:40 45° ESE 20:35:04 10° NE
Cosmos 2026 Rocket 4.0 20:21:30 10° N 20:27:54 87° W 20:30:53 34° S
Cosmos 2098 Rocket 4.4 20:22:07 10° N 20:29:03 46° ENE 20:30:00 44° E
ISS -1.9 20:27:30 10° WSW 20:29:08 26° WSW 20:29:08 26° WSW
Cosmos 2082 Rocket 3.0 20:26:31 10° NNW 20:31:42 36° NE 20:32:16 35° ENE
BREEZE-M DEB (TANK) 4.4 20:29:35 10° WSW 20:33:53 77° SSE 20:52:29 10° ENE
CENTAUR R/B 3.4 20:27:12 10° NW 20:35:09 68° SW 20:39:10 35° SSE
Cosmos 1733 3.9 20:36:19 48° N 20:36:19 48° N 20:39:12 10° N
Meteor 1-22 Rocket 4.2 20:34:25 45° S 20:36:21 77° E 20:42:26 10° NNE
Cosmos 1892 Rocket 3.7 20:33:51 10° N 20:37:39 65° NNE 20:37:39 65° NNE
CZ-2C R/B 3.6 20:34:04 10° NNE 20:38:33 80° WNW 20:38:58 71° SW
ATLAS 3B R/B 2.8 20:35:43 10° NW 20:42:31 68° NE 20:44:10 52° E
COSMOS 2406 3.0 20:36:51 10° NNW 20:42:34 79° ENE 20:43:10 70° ESE
SPOT 1/Viking Rocket 3.5 20:43:21 64° ENE 20:43:21 64° ENE 20:48:25 10° N
SL-14 R/B 3.9 20:39:58 10° NNW 20:43:14 55° NW 20:43:14 55° NW
Cosmos 2279 Rocket 3.9 20:44:35 62° SE 20:45:20 67° E 20:51:33 10° NNE
CZ-2C R/B 3.9 20:40:18 10° N 20:45:26 41° WNW 20:50:38 10° SW
Meteor 1-24 Rocket 3.9 20:40:11 10° NNW 20:45:38 69° W 20:47:08 48° SSW
Cosmos 1269 Rocket 4.2 20:41:57 10° NNW 20:47:15 66° WSW 20:48:00 58° SSW
Cosmos 2142 Rocket 4.3 20:47:06 54° S 20:48:39 81° E 20:54:55 10° NNE
Spot 2 Rocket 3.4 20:51:07 81° NE 20:51:07 81° NE 20:56:01 10° NNW
Exosat Rocket 4.0 20:50:21 10° SW 20:55:41 60° WNW 21:00:40 10° NNE
Terra 3.1 21:02:36 32° NNE 21:02:36 32° NNE 21:05:39 10° N
MetOp-B 4.4 21:01:42 58° SW 21:02:18 62° WSW 21:07:38 10° NNW
Cosmos 2278 Rocket 4.0 21:07:57 19° NE 21:07:57 19° NE 21:09:31 10° NE
Cosmos 1844 4.3 20:59:13 10° SW 21:04:48 56° NW 21:10:22 10° NNE
Lacrosse 4 Rocket 3.0 21:04:19 10° NNW 21:06:37 29° N 21:06:37 29° N
Cosmos 909 Rocket 4.0 21:02:29 10° NW 21:09:09 67° NE 21:09:31 66° ENE
Okean 1-7 Rocket 4.3 21:04:41 10° NNW 21:08:19 53° NW 21:08:19 53° NW
Cosmos 1844 Rocket 3.8 21:08:11 10° WSW 21:13:27 41° NW 21:18:45 10° NNE
Resurs 01 Rocket 3.4 21:20:28 25° W 21:20:49 26° W 21:24:33 10° NW
Cosmos 2251 Rocket 4.0 21:15:28 10° NNW 21:19:53 58° N 21:19:53 58° N
Lacrosse 5 rocket 3.0 21:21:59 10° WNW 21:25:05 34° NNW 21:25:05 34° NNW
USA 234 3.1 21:24:43 50° ENE 21:26:42 88° NNW 21:33:16 10° WSW
SPOT 5 3.6 21:28:43 55° NNW 21:28:43 55° NNW 21:32:52 10° NNW
Cosmos 2266 Rocket 4.0 21:24:04 10° N 21:29:34 75° NNW 21:29:34 75° NNW
Cosmos 1833 Rocket 3.2 21:28:16 10° NW 21:33:07 56° WNW 21:33:07 56° WNW
ARIANE 5 R/B 4.5 21:38:36 26° WNW 21:38:36 26° WNW 21:41:29 10° NW
Cosmos 1655 Rocket 4.3 21:35:27 10° NNW 21:41:36 61° W 21:41:39 61° W
NOSS 3-4 (A) 4.2 21:57:18 44° NNE 21:57:18 44° NNE 22:01:46 10° NE
NOSS 3-4 (C) 4.3 21:57:30 43° NNE 21:57:30 43° NNE 22:01:53 10° NE
ERS-1 Rocket 4.3 21:57:27 37° NW 21:57:27 37° NW 22:00:49 10° NNW
Cosmos 2082 Rocket 3.5 22:10:34 10° NW 22:14:06 36° WNW 22:14:06 36° WNW
ATLAS 2AS CENTAUR R/B 3.3 22:10:38 10° WSW 22:18:34 64° NW 22:26:20 10° NE
ATLAS 3B R/B 3.9 22:26:46 10° NW 22:31:25 33° W 22:31:25 33° W
Terra 4.2 22:41:29 19° NW 22:41:29 19° NW 22:43:15 10° NNW
Cosmos 2278 Rocket 3.7 22:49:46 32° NNW 22:49:46 32° NNW 22:53:36 10° NNE
USA 234 4.4 23:03:09 10° ENE 23:12:13 33° WNW 23:15:48 10° W
CZ-4C R/B 4.0 23:34:17 28° NNE 23:34:17 28° NNE 23:37:29 10° NE
USA 229 DEB 4.5 23:35:03 10° NW 23:40:43 52° N 23:40:43 52° N
USA 229 4.5 23:35:08 10° NW 23:40:49 52° N 23:40:49 52° N
